| time (UTC) | temp F | wind direction | speed MPH | gust MPH | rain 1hr in | rain 24hr in | rain mn in | humidity % | barometer mb |
| 20260904071515 | 65 | 121 | 0.0 | 3.0 | 0.00 | 0.13 | 0.00 | 94 | 1008.7 |
| 20260904070027 | 65 | 101 | 0.0 | 0.0 | 0.00 | 0.13 | 0.00 | 94 | 1008.9 |
| 20260904064508 | 64 | 101 | 0.0 | 0.0 | 0.00 | 0.13 | 0.00 | 94 | 1008.8 |
| 20260904063012 | 64 | 101 | 0.0 | 0.0 | 0.00 | 0.13 | 0.00 | 94 | 1008.8 |
| 20260904061505 | 64 | 101 | 0.0 | 0.0 | 0.00 | 0.13 | 0.00 | 93 | 1009.0 |
| 20260904060004 | 64 | 101 | 0.0 | 0.0 | 0.00 | 0.13 | 0.00 | 93 | 1009.2 |
| 20260904054502 | 63 | 101 | 0.0 | 0.0 | 0.00 | 0.13 | 0.00 | 93 | 1009.5 |
| 20260904053100 | 63 | 101 | 0.0 | 0.0 | 0.00 | 0.13 | 0.00 | 93 | 1009.5 |
| 20260904051558 | 63 | 101 | 0.0 | 0.0 | 0.00 | 0.13 | 0.00 | 92 | 1009.7 |
| 20260904050056 | 63 | 101 | 0.0 | 0.0 | 0.00 | 0.13 | 0.00 | 92 | 1009.9 |
| 20260904044559 | 64 | 101 | 0.0 | 0.0 | 0.00 | 0.13 | 0.00 | 92 | 1009.9 |
| 20260904043057 | 64 | 101 | 0.0 | 0.0 | 0.00 | 0.13 | 0.00 | 92 | 1010.0 |
| 20260904041555 | 64 | 101 | 0.0 | 0.0 | 0.00 | 0.13 | 0.00 | 92 | 1010.0 |
| 20260904040050 | 64 | 101 | 0.0 | 0.0 | 0.00 | 0.13 | 0.00 | 92 | 1010.0 |
| 20260904034556 | 64 | 101 | 0.0 | 0.0 | 0.00 | 0.13 | 0.13 | 92 | 1010.2 |
| 20260904033050 | 65 | 101 | 0.0 | 0.0 | 0.00 | 0.13 | 0.13 | 91 | 1010.2 |
| 20260904031549 | 65 | 101 | 0.0 | 0.0 | 0.00 | 0.13 | 0.13 | 91 | 1010.2 |
| 20260904030049 | 65 | 101 | 0.0 | 0.0 | 0.00 | 0.13 | 0.13 | 91 | 1010.2 |
| 20260904024547 | 66 | 101 | 0.0 | 0.0 | 0.00 | 0.13 | 0.13 | 91 | 1010.5 |
| 20260904023054 | 66 | 101 | 0.0 | 0.0 | 0.00 | 0.13 | 0.13 | 91 | 1010.7 |
| 20260904021547 | 66 | 101 | 0.0 | 0.0 | 0.00 | 0.13 | 0.13 | 91 | 1010.9 |
| 20260904020048 | 66 | 101 | 0.0 | 0.0 | 0.00 | 0.13 | 0.13 | 90 | 1010.8 |
| 20260904014547 | 66 | 101 | 0.0 | 2.0 | 0.00 | 0.13 | 0.13 | 90 | 1010.8 |
| 20260904013045 | 67 | 69 | 0.0 | 0.0 | 0.00 | 0.13 | 0.13 | 89 | 1011.1 |
| 20260904011600 | 67 | 69 | 0.0 | 0.0 | 0.00 | 0.13 | 0.13 | 89 | 1011.2 |
| 20260904010044 | 67 | 69 | 0.0 | 0.0 | 0.00 | 0.13 | 0.13 | 88 | 1011.0 |
| 20260904004543 | 68 | 69 | 0.0 | 0.0 | 0.00 | 0.13 | 0.13 | 88 | 1010.7 |
| 20260904003043 | 68 | 69 | 0.0 | 0.0 | 0.00 | 0.13 | 0.13 | 88 | 1010.5 |
| 20260904001544 | 69 | 69 | 0.0 | 0.0 | 0.00 | 0.13 | 0.13 | 87 | 1010.5 |
| 20260904000050 | 69 | 69 | 0.0 | 0.0 | 0.00 | 0.13 | 0.13 | 86 | 1010.5 |
| 20260903234545 | 70 | 69 | 0.0 | 0.0 | 0.00 | 0.13 | 0.13 | 85 | 1010.3 |
| 20260903233041 | 71 | 69 | 0.0 | 0.0 | 0.00 | 0.13 | 0.13 | 85 | 1010.3 |
| 20260903231544 | 71 | 69 | 0.0 | 1.0 | 0.00 | 0.13 | 0.13 | 85 | 1010.1 |
| 20260903230045 | 72 | 75 | 0.0 | 3.0 | 0.00 | 0.13 | 0.13 | 85 | 1010.1 |
| 20260903224540 | 73 | 107 | 0.0 | 0.0 | 0.00 | 0.13 | 0.13 | 84 | 1010.4 |
| 20260903223037 | 73 | 107 | 0.0 | 0.0 | 0.00 | 0.13 | 0.13 | 84 | 1010.5 |
| 20260903221536 | 74 | 107 | 0.0 | 0.0 | 0.00 | 0.13 | 0.13 | 83 | 1010.5 |
| 20260903220039 | 74 | 107 | 0.0 | 1.0 | 0.00 | 0.13 | 0.13 | 82 | 1010.7 |
| 20260903214541 | 74 | 107 | 0.0 | 3.0 | 0.00 | 0.13 | 0.13 | 81 | 1010.5 |
| 20260903213041 | 74 | 138 | 0.0 | 1.0 | 0.00 | 0.13 | 0.13 | 81 | 1010.4 |
| 20260903211534 | 73 | 138 | 0.0 | 3.0 | 0.00 | 0.13 | 0.13 | 82 | 1010.4 |
| 20260903210033 | 73 | 84 | 0.0 | 1.0 | 0.00 | 0.13 | 0.13 | 84 | 1010.4 |
| 20260903204531 | 72 | 86 | 0.0 | 2.0 | 0.00 | 0.13 | 0.13 | 83 | 1010.6 |
| 20260903203043 | 73 | 89 | 0.0 | 1.0 | 0.00 | 0.13 | 0.13 | 84 | 1010.7 |
| 20260903201536 | 73 | 89 | 0.0 | 3.0 | 0.00 | 0.13 | 0.13 | 83 | 1010.6 |
| 20260903200029 | 72 | 61 | 0.0 | 4.0 | 0.00 | 0.13 | 0.13 | 84 | 1010.6 |
| 20260903194528 | 71 | 46 | 2.0 | 6.0 | 0.00 | 0.13 | 0.13 | 86 | 1010.8 |
| 20260903193034 | 71 | 72 | 1.0 | 3.0 | 0.00 | 0.13 | 0.13 | 87 | 1011.1 |
| 20260903191524 | 70 | 38 | 0.0 | 3.0 | 0.00 | 0.13 | 0.13 | 86 | 1011.3 |
| 20260903190023 | 71 | 57 | 1.0 | 5.0 | 0.00 | 0.13 | 0.13 | 86 | 1011.5 |
| 20260903184522 | 71 | 59 | 0.0 | 3.0 | 0.00 | 0.13 | 0.13 | 85 | 1011.5 |
| 20260903183020 | 72 | 46 | 0.0 | 2.0 | 0.00 | 0.13 | 0.13 | 84 | 1011.9 |
| 20260903181520 | 72 | 58 | 0.0 | 5.0 | 0.00 | 0.13 | 0.13 | 84 | 1011.9 |
| 20260903180023 | 73 | 80 | 0.0 | 5.0 | 0.00 | 0.13 | 0.13 | 83 | 1012.0 |
| 20260903174522 | 74 | 67 | 0.0 | 4.0 | 0.00 | 0.13 | 0.13 | 83 | 1011.9 |
| 20260903173017 | 74 | 53 | 1.0 | 5.0 | 0.00 | 0.13 | 0.13 | 82 | 1012.0 |
| 20260903171515 | 75 | 336 | 0.0 | 3.0 | 0.00 | 0.13 | 0.13 | 83 | 1011.9 |
| 20260903170017 | 75 | 73 | 0.0 | 3.0 | 0.00 | 0.13 | 0.13 | 85 | 1011.7 |
| 20260903164514 | 74 | 140 | 0.0 | 5.0 | 0.00 | 0.13 | 0.13 | 85 | 1011.5 |
| 20260903163014 | 74 | 72 | 0.0 | 3.0 | 0.00 | 0.13 | 0.13 | 89 | 1011.4 |
| 20260903161506 | 73 | 49 | 0.0 | 6.0 | 0.00 | 0.13 | 0.13 | 90 | 1011.6 |
| 20260903160002 | 73 | 317 | 0.0 | 4.0 | 0.00 | 0.13 | 0.13 | 92 | 1011.8 |
| 20260903154600 | 73 | 344 | 0.0 | 2.0 | 0.00 | 0.13 | 0.13 | 93 | 1012.1 |
| 20260903153057 | 72 | 284 | 0.0 | 2.0 | 0.00 | 0.13 | 0.13 | 94 | 1012.1 |
| 20260903151553 | 72 | 94 | 0.0 | 3.0 | 0.00 | 0.13 | 0.13 | 94 | 1012.2 |
| 20260903150049 | 71 | 176 | 0.0 | 2.0 | 0.00 | 0.13 | 0.13 | 94 | 1012.6 |
| 20260903144552 | 71 | 162 | 0.0 | 2.0 | 0.00 | 0.14 | 0.13 | 95 | 1012.5 |
| 20260903143047 | 70 | 148 | 0.0 | 1.0 | 0.00 | 0.14 | 0.13 | 95 | 1012.8 |
| 20260903141538 | 69 | 148 | 0.0 | 1.0 | 0.00 | 0.14 | 0.13 | 94 | 1013.0 |
| 20260903140042 | 69 | 148 | 0.0 | 0.0 | 0.00 | 0.14 | 0.13 | 94 | 1013.3 |
| 20260903134537 | 68 | 148 | 0.0 | 0.0 | 0.00 | 0.14 | 0.13 | 94 | 1013.2 |
| 20260903133032 | 68 | 148 | 0.0 | 1.0 | 0.01 | 0.14 | 0.13 | 94 | 1013.0 |
| 20260903131530 | 67 | 144 | 0.0 | 1.0 | 0.02 | 0.14 | 0.13 | 94 | 1013.2 |
| 20260903130029 | 67 | 146 | 0.0 | 0.0 | 0.03 | 0.14 | 0.13 | 94 | 1013.2 |
| 20260903124527 | 66 | 146 | 0.0 | 1.0 | 0.03 | 0.14 | 0.13 | 94 | 1013.2 |
| 20260903123025 | 66 | 152 | 0.0 | 1.0 | 0.03 | 0.13 | 0.12 | 94 | 1013.5 |
| 20260903121530 | 66 | 151 | 0.0 | 1.0 | 0.03 | 0.12 | 0.11 | 94 | 1013.7 |
| 20260903120036 | 66 | 150 | 0.0 | 8.0 | 0.03 | 0.11 | 0.10 | 94 | 1013.7 |
| 20260903114520 | 65 | 134 | 0.0 | 5.0 | 0.03 | 0.11 | 0.10 | 94 | 1013.7 |
| 20260903113021 | 65 | 147 | 1.0 | 8.0 | 0.02 | 0.10 | 0.09 | 93 | 1013.7 |
| 20260903111515 | 65 | 159 | 0.0 | 3.0 | 0.01 | 0.09 | 0.08 | 93 | 1013.7 |
| 20260903110014 | 64 | 170 | 1.0 | 4.0 | 0.02 | 0.08 | 0.07 | 93 | 1013.9 |
| 20260903104513 | 64 | 150 | 0.0 | 6.0 | 0.02 | 0.08 | 0.07 | 93 | 1013.6 |
| 20260903103011 | 64 | 195 | 1.0 | 7.0 | 0.03 | 0.08 | 0.07 | 93 | 1013.4 |
| 20260903101520 | 64 | 161 | 0.0 | 7.0 | 0.03 | 0.08 | 0.07 | 92 | 1013.4 |
| 20260903100020 | 64 | 142 | 0.0 | 5.0 | 0.02 | 0.06 | 0.05 | 92 | 1013.6 |
| 20260903094518 | 64 | 180 | 1.0 | 5.0 | 0.05 | 0.06 | 0.05 | 92 | 1013.7 |
| 20260903093004 | 64 | 162 | 1.0 | 5.0 | 0.04 | 0.05 | 0.04 | 91 | 1014.0 |
| 20260903091504 | 64 | 182 | 2.0 | 6.0 | 0.04 | 0.05 | 0.04 | 90 | 1014.0 |
| 20260903090002 | 64 | 167 | 2.0 | 6.0 | 0.03 | 0.04 | 0.03 | 90 | 1014.1 |
| 20260903084601 | 64 | 171 | 0.0 | 6.0 | 0.00 | 0.01 | 0.00 | 89 | 1014.5 |
| 20260903083057 | 64 | 132 | 0.0 | 6.0 | 0.00 | 0.01 | 0.00 | 89 | 1014.7 |
| 20260903081554 | 64 | 178 | 1.0 | 4.0 | 0.00 | 0.01 | 0.00 | 89 | 1014.9 |
| 20260903080053 | 64 | 170 | 0.0 | 6.0 | 0.00 | 0.01 | 0.00 | 88 | 1015.1 |
| 20260903074551 | 64 | 171 | 1.0 | 5.0 | 0.00 | 0.01 | 0.00 | 88 | 1015.2 |
| 20260903073050 | 64 | 133 | 0.0 | 2.0 | 0.00 | 0.01 | 0.00 | 87 | 1015.2 |